Location: Glencliff
(36.1226°N, 86.7183°W)
Time: 22:05:08
(UTC+00:00)

CZ-2C R/B - Pass Details

Date: 25 August 2019
Orbit: 504 x 567 km, 97.6° (Epoch: 14 September)

Event Time Altitude Azimuth Distance (km) Brightness Sun altitude
Rises 08:55:50 0° 9° (N) 2,764 7.1 -25.7°
Reaches altitude 10° 08:57:59 10° 8° (N) 1,868 6.1 -25.4°
Enters shadow 09:01:11 53° 352° (N) 698 3.4 -24.9°
